When you browse on this site, cookies collect data to enhance your experience and personalize the content and advertising you see.
Visit our Privacy Policy to learn more. By continuing to use the site, you agree to this use of cookies and data.
  • în România
  • Lista ţărilor
  • Pe 7 zile
  • Temperatura apei
  • Hartă satelitară
  • Meteo pe hartă
  • Widget-uri
  • user-avatar
    Intrare

    Meteo pe oră la Ciechocinek

    Astăzi, 26 Martie, Marţi

    Timp Temperatura Precipitaţii Vânt Presiune Umiditate
    00:00 +1°C° 0 mm 3 m/s 759 mmHg 90%
    01:00 +1°C° 0 mm 2 m/s 759 mmHg 93%
    02:00 +1°C° 0 mm 2 m/s 759 mmHg 94%
    03:00 0°C° 0 mm 3 m/s 760 mmHg 94%
    04:00 -1°C° 0 mm 3 m/s 760 mmHg 95%
    05:00 -1°C° 0 mm 4 m/s 760 mmHg 93%
    06:00 -1°C° 0 mm 4 m/s 759 mmHg 90%
    07:00 0°C° 0 mm 5 m/s 759 mmHg 85%
    08:00 +2°C° 0 mm 6 m/s 759 mmHg 78%
    09:00 +3°C° 0 mm 7 m/s 758 mmHg 71%
    10:00 +3°C° 0 mm 9 m/s 758 mmHg 64%
    11:00 +3°C° 0.1 mm 9 m/s 757 mmHg 64%
    12:00 +3°C° 0.1 mm 9 m/s 757 mmHg 65%
    13:00 +3°C° 0.1 mm 9 m/s 757 mmHg 65%
    14:00 +2°C° 0.4 mm 9 m/s 757 mmHg 64%
    15:00 +2°C° 0.4 mm 8 m/s 757 mmHg 63%
    16:00 +2°C° 0.4 mm 8 m/s 758 mmHg 62%
    17:00 +2°C° 0 mm 7 m/s 758 mmHg 62%
    18:00 +1°C° 0 mm 5 m/s 759 mmHg 62%
    19:00 0°C° 0 mm 4 m/s 760 mmHg 62%
    20:00 -1°C° 0 mm 4 m/s 760 mmHg 65%
    21:00 -1°C° 0 mm 4 m/s 761 mmHg 67%
    22:00 -2°C° 0 mm 4 m/s 762 mmHg 69%
    23:00 -1°C° 0 mm 3 m/s 763 mmHg 72%

    Mâine, 27 Martie, Miercuri

    Timp Temperatura Precipitaţii Vânt Presiune Umiditate
    00:00 -1°C° 0 mm 3 m/s 763 mmHg 75%
    01:00 -2°C° 0 mm 3 m/s 764 mmHg 78%
    02:00 -2°C° 0 mm 3 m/s 764 mmHg 78%
    03:00 -2°C° 0 mm 2 m/s 764 mmHg 78%
    04:00 -2°C° 0 mm 2 m/s 764 mmHg 78%
    05:00 -1°C° 0 mm 2 m/s 765 mmHg 74%
    06:00 -1°C° 0 mm 2 m/s 765 mmHg 69%
    07:00 +1°C° 0 mm 2 m/s 765 mmHg 65%
    08:00 +2°C° 0 mm 3 m/s 765 mmHg 59%
    09:00 +4°C° 0 mm 3 m/s 766 mmHg 54%
    10:00 +6°C° 0 mm 4 m/s 766 mmHg 48%
    11:00 +7°C° 0 mm 4 m/s 766 mmHg 46%
    12:00 +8°C° 0 mm 4 m/s 766 mmHg 44%
    13:00 +9°C° 0 mm 5 m/s 765 mmHg 42%
    14:00 +8°C° 0 mm 5 m/s 765 mmHg 52%
    15:00 +7°C° 0 mm 4 m/s 765 mmHg 62%
    16:00 +7°C° 0 mm 4 m/s 765 mmHg 71%
    17:00 +6°C° 0.2 mm 4 m/s 765 mmHg 77%
    18:00 +7°C° 0.2 mm 3 m/s 765 mmHg 83%
    19:00 +5°C° 0.2 mm 3 m/s 765 mmHg 89%
    20:00 +5°C° 0.1 mm 3 m/s 765 mmHg 89%
    21:00 +5°C° 0.1 mm 3 m/s 765 mmHg 90%
    22:00 +5°C° 0.1 mm 3 m/s 765 mmHg 90%
    23:00 +5°C° 0.1 mm 3 m/s 765 mmHg 92%

    Poimâine, 28 Martie, Joi

    Timp Temperatura Precipitaţii Vânt Presiune Umiditate
    00:00 +5°C° 0.1 mm 3 m/s 765 mmHg 93%
    01:00 +5°C° 0.1 mm 3 m/s 765 mmHg 95%
    02:00 +6°C° 0.1 mm 2 m/s 765 mmHg 95%
    03:00 +6°C° 0.1 mm 2 m/s 765 mmHg 96%
    04:00 +5°C° 0.1 mm 2 m/s 766 mmHg 97%
    05:00 +5°C° 0.1 mm 2 m/s 766 mmHg 96%
    06:00 +6°C° 0.1 mm 2 m/s 766 mmHg 95%
    07:00 +6°C° 0.1 mm 2 m/s 767 mmHg 94%
    08:00 +7°C° 0 mm 2 m/s 767 mmHg 88%
    09:00 +8°C° 0 mm 2 m/s 768 mmHg 81%
    10:00 +9°C° 0 mm 2 m/s 768 mmHg 74%
    11:00 +10°C° 0 mm 2 m/s 768 mmHg 72%
    12:00 +10°C° 0 mm 2 m/s 769 mmHg 70%
    13:00 +10°C° 0 mm 2 m/s 769 mmHg 67%
    14:00 +10°C° 0 mm 2 m/s 769 mmHg 66%
    15:00 +11°C° 0 mm 1 m/s 769 mmHg 65%
    16:00 +12°C° 0 mm 1 m/s 769 mmHg 64%
    17:00 +10°C° 0 mm 1 m/s 769 mmHg 68%
    18:00 +9°C° 0 mm 1 m/s 770 mmHg 73%
    19:00 +8°C° 0 mm 1 m/s 770 mmHg 78%
    20:00 +8°C° 0 mm 1 m/s 770 mmHg 80%
    21:00 +7°C° 0 mm 2 m/s 770 mmHg 82%
    22:00 +6°C° 0 mm 2 m/s 771 mmHg 83%
    23:00 +6°C° 0 mm 2 m/s 771 mmHg 85%

    29 Martie, Vineri

    Timp Temperatura Precipitaţii Vânt Presiune Umiditate
    00:00 +6°C° 0 mm 2 m/s 771 mmHg 87%
    01:00 +4°C° 0 mm 3 m/s 771 mmHg 89%
    02:00 +4°C° 0 mm 3 m/s 770 mmHg 91%
    03:00 +4°C° 0 mm 3 m/s 770 mmHg 92%
    04:00 +4°C° 0 mm 3 m/s 770 mmHg 93%
    05:00 +4°C° 0 mm 3 m/s 770 mmHg 92%
    06:00 +5°C° 0 mm 3 m/s 770 mmHg 91%
    07:00 +5°C° 0 mm 3 m/s 770 mmHg 90%
    08:00 +7°C° 0 mm 4 m/s 770 mmHg 85%
    09:00 +10°C° 0 mm 4 m/s 770 mmHg 79%
    10:00 +12°C° 0 mm 4 m/s 770 mmHg 74%
    11:00 +13°C° 0 mm 4 m/s 770 mmHg 69%
    12:00 +14°C° 0 mm 4 m/s 770 mmHg 65%
    13:00 +15°C° 0 mm 4 m/s 769 mmHg 61%
    14:00 +15°C° 0 mm 4 m/s 769 mmHg 61%
    15:00 +15°C° 0 mm 4 m/s 769 mmHg 60%
    16:00 +15°C° 0 mm 4 m/s 768 mmHg 60%
    17:00 +14°C° 0 mm 3 m/s 768 mmHg 66%
    18:00 +13°C° 0 mm 3 m/s 768 mmHg 71%
    19:00 +13°C° 0 mm 2 m/s 768 mmHg 76%
    20:00 +12°C° 0 mm 2 m/s 768 mmHg 80%
    21:00 +10°C° 0 mm 2 m/s 768 mmHg 84%
    22:00 +9°C° 0 mm 2 m/s 768 mmHg 87%
    23:00 +9°C° 0 mm 2 m/s 768 mmHg 89%

    30 Martie, Sâmbătă

    Timp Temperatura Precipitaţii Vânt Presiune Umiditate
    00:00 +8°C° 0 mm 2 m/s 768 mmHg 90%
    01:00 +8°C° 0 mm 2 m/s 768 mmHg 92%
    02:00 +8°C° 0 mm 2 m/s 767 mmHg 92%
    03:00 +7°C° 0 mm 2 m/s 767 mmHg 93%
    04:00 +7°C° 0 mm 2 m/s 767 mmHg 94%
    05:00 +8°C° 0 mm 3 m/s 767 mmHg 92%
    06:00 +8°C° 0 mm 3 m/s 767 mmHg 90%
    07:00 +9°C° 0 mm 3 m/s 767 mmHg 88%
    08:00 +10°C° 0 mm 3 m/s 766 mmHg 81%
    09:00 +12°C° 0 mm 3 m/s 766 mmHg 74%
    10:00 +14°C° 0 mm 3 m/s 766 mmHg 67%
    11:00 +15°C° 0 mm 4 m/s 765 mmHg 63%
    12:00 +15°C° 0 mm 4 m/s 765 mmHg 59%
    13:00 +17°C° 0 mm 4 m/s 764 mmHg 56%
    14:00 +17°C° 0 mm 4 m/s 764 mmHg 55%
    15:00 +17°C° 0 mm 4 m/s 763 mmHg 55%
    16:00 +17°C° 0 mm 4 m/s 762 mmHg 55%
    17:00 +16°C° 0 mm 3 m/s 762 mmHg 60%
    18:00 +13°C° 0 mm 3 m/s 762 mmHg 65%
    19:00 +13°C° 0 mm 2 m/s 762 mmHg 70%
    20:00 +12°C° 0 mm 2 m/s 762 mmHg 71%
    21:00 +12°C° 0 mm 2 m/s 761 mmHg 71%
    22:00 +10°C° 0 mm 2 m/s 761 mmHg 72%
    23:00 +10°C° 0 mm 2 m/s 761 mmHg 73%

    31 Martie, Duminică

    Timp Temperatura Precipitaţii Vânt Presiune Umiditate
    00:00 +9°C° 0 mm 2 m/s 760 mmHg 74%
    01:00 +9°C° 0 mm 2 m/s 760 mmHg 75%
    02:00 +8°C° 0 mm 2 m/s 760 mmHg 75%
    03:00 +8°C° 0 mm 2 m/s 759 mmHg 76%
    04:00 +8°C° 0 mm 2 m/s 759 mmHg 76%
    05:00 +8°C° 0 mm 2 m/s 759 mmHg 76%
    06:00 +8°C° 0 mm 2 m/s 759 mmHg 76%
    07:00 +9°C° 0 mm 2 m/s 759 mmHg 76%
    08:00 +9°C° 0.1 mm 2 m/s 759 mmHg 77%
    09:00 +10°C° 0.1 mm 3 m/s 760 mmHg 78%
    10:00 +11°C° 0.1 mm 3 m/s 760 mmHg 79%
    11:00 +10°C° 0.4 mm 4 m/s 760 mmHg 80%
    12:00 +8°C° 0.4 mm 4 m/s 760 mmHg 80%
    13:00 +7°C° 0.4 mm 5 m/s 760 mmHg 81%
    14:00 +7°C° 0.2 mm 5 m/s 761 mmHg 77%
    15:00 +7°C° 0.2 mm 5 m/s 761 mmHg 73%
    16:00 +7°C° 0.2 mm 5 m/s 761 mmHg 69%
    17:00 +7°C° 0.1 mm 4 m/s 762 mmHg 69%
    18:00 +6°C° 0.1 mm 4 m/s 763 mmHg 69%
    19:00 +5°C° 0.1 mm 4 m/s 763 mmHg 68%
    20:00 +4°C° 0 mm 4 m/s 764 mmHg 72%
    21:00 +3°C° 0 mm 4 m/s 764 mmHg 75%
    22:00 +1°C° 0 mm 5 m/s 765 mmHg 78%
    23:00 0°C° 0 mm 5 m/s 765 mmHg 77%
    Arată mai mult